SCP
0 0 0 0 0 0 0 0 0 0 0 0 0 0 -0 -0 0 0 0 0 0 0 0 0 0 0 0 0 0 0 0 0 0 0 0 0 0 0 0 0 0 0 0 0
0 0 0 0 0 0 0 0 0 0 0 0 0 0 0 0 0 0 0 0 0 0 0 0 0 0 0 0 0 0 0 0 0 0 0 0 0 0 0 0 0 0 0 0
0 0 0 0 0 0 0 0 0 0 0 0 0 0 0 0 0 0 0 0 0 0 0 0 0 0 0 0 0 0 0 0 0 0 0 -0 -0 -0 -0 -0 -0 -0 -0 -0
0 0 0 0 0 0 0 0 0 0 0 0 0 0 0 0 0 0 0 0 0 0 0 0 0 0 0 0 0 -0 0 0 -0 0 -0 -0 -0 -0 -0 -0 -0 0 -0 -0
0 0 0 0 0 0 0 0 0 0 0 0 0 0 0 0 0 0 0 0 0 0 0 0 0 0 0 -0 -0 0 -0 -0 -0 -0 0 0 -0 -0 -0 0 0 0 0 0
0 0 0 0 0 0 0 0 0 0 0 0 0 0 0 0 0 0 0 0 0 0 0 0 -0 -0 -0 -0 -0 -0 -0 -0 -0 0 0 0 -0 0 0 0 0 0 0 0
0 0 0 0 0 0 0 0 0 0 0 0 0 0 0 0 0 0 0 0 0 0 -0 -0 -0 -0 -0 -0 -0 -0 0 0 -0 0 0 0 0 0 0 0 0 0 0 0
0 0 0 0 0 0 0 0 0 0 0 0 0 0 0 0 0 0 0 0 0 -0 -0 -0 -0 -0 -0 -0 -0 -0 -0 -0 0 0 0 0 0 0 0 0 0 0 0 0
0 0 0 0 0 0 0 0 0 0 0 0 0 0 0 0 0 0 -0 -0 -0 -0 -0 -0 0 -0 0 -0 0 -0 0 0 -0 0 0 0 0 0 0 0 0 0 0 0
0 0 0 0 0 0 0 0 0 0 0 0 0 0 0 0 0 0 -0 -0 -0 -0 0 0 0 0 -0 -0 -0 -0 0 0 0 0 0 0 0 0 0 0 0 0 0 -0
0 0 0 0 0 0 0 0 0 0 0 0 0 0 0 0 0 0 0 -0 -0 -0 -0 -0 -0 -0 -0 -0 -0 0 0 0 0 0 -0 -0 0 0 0 0 0 0 0 0
0 0 0 0 0 0 0 0 0 0 0 0 0 0 0 0 0 0 0 0 0 0 0 0 0 0 0 0 0 0 0 -0 -0 0 0 0 0 -0 0 -0 0 0 0 0
0 0 0 0 0 0 0 0 0 0 0 0 0 0 -0 0 0 -0 -0 0 0 0 0 -0 0 0 0 0 0 0 0 -0 0 0 0 0 -0 -0 0 0 0 0 0 0
0 0 0 0 0 0 0 0 0 0 0 0 0 0 -0 0 0 0 0 0 0 0 0 0 0 0 0 0 0 0 0 0 0 0 -0 -0 -0 0 0 0 0 0 0 0
-0 0 0 0 0 0 0 0 0 0 0 0 0 0 0 0 0 0 0 0 0 0 0 0 0 0 0 0 0 0 0 0 0 0 0 0 0 0 0 0 0 0 0 0
0 0 0 0 0 0 0 0 0 0 0 0 0 0 0 0 0 0 0 -0 -0 0 0 0 0 0 0 0 0 0 0 0 0 0 0 0 0 0 0 0 0 0 0 0
0 0 0 0 0 0 0 0 0 0 0 0 0 0 0 0 0 0 0 0 -0 -0 -0 0 0 0 0 0 0 0 0 0 0 0 0 0 0 0 0 0 0 0 0 0
0 0 0 0 0 0 0 0 0 0 0 0 0 0 0 0 0 0 0 0 0 0 0 0 0 0 0 0 0 0 0 0 0 0 0 0 0 0 0 0 0 0 0 0
-0 0 0 0 0 0 0 0 -0 0 0 0 0 0 0 0 0 0 0 0 0 0 0 0 0 0 0 0 0 0 0 0 0 0 0 0 0 0 0 0 0 0 0 0
-0 0 0 0 0 0 0 0 0 0 0 0 0 0 0 0 0 0 0 0 0 0 0 0 0 0 0 0 0 0 0 0 0 0 0 0 0 0 0 0 0 0 0 0
0 -0 0 0 0 0 0 0 0 0 0 0 0 0 0 0 0 0 0 0 0 0 0 0 0 0 0 0 0 0 0 0 0 0 0 0 0 0 0 0 0 0 0 0
0 0 0 0 0 0 0 0 0 0 0 0 0 0 0 0 0 0 0 0 0 0 0 0 0 0 0 0 0 0 0 0 0 0 0 0 0 0 0 0 0 0 0 0
0 0 0 0 0 0 0 0 0 0 0 0 0 0 0 0 0 0 0 0 0 0 -0 0 0 0 0 0 0 0 0 0 0 0 0 0 0 0 0 0 0 0 0 0
-0 -0 -0 -0 0 0 0 0 0 0 0 0 0 0 0 0 0 0 0 0 0 0 0 0 0 0 0 0 0 0 0 0 0 0 0 0 0 0 0 0 0 0 0 0
-0 -0 -0 0 0 0 0 0 0 0 0 0 0 0 0 0 0 0 0 0 0 0 0 0 0 0 0 0 0 0 0 0 0 0 0 0 0 0 0 0 0 0 0 0
-0 -0 0 -0 -0 -0 -0 0 0 0 0 0 0 0 0 0 0 0 0 0 0 0 0 0 0 0 0 0 0 0 0 0 0 0 0 0 0 0 0 0 0 0 0 0
0 -0 -0 -0 -0 -0 0 0 -0 0 0 0 0 0 0 0 0 0 0 0 0 0 0 0 0 0 0 0 0 0 0 0 0 0 0 0 0 0 0 0 0 0 0 0
Wind_Speed_500mb
10 12 3 5 5 8 6 3 5 6 6 6 5 5 16 18 14 14 17 23 30 36 39 37 40 45 50 51 50 42 30 15 10 15 22 23 24 26 27 26 24 22 20 16
8 9 10 7 5 5 1 4 5 11 9 10 9 8 24 22 4 8 17 19 29 26 24 29 40 42 39 32 20 7 5 10 7 11 16 16 15 21 21 20 20 21 20 20
9 7 1 4 11 10 8 8 8 7 11 8 3 6 2 12 11 12 16 25 26 22 22 29 30 23 21 16 10 14 13 10 11 13 13 14 11 7 9 7 11 15 17 18
8 4 2 14 13 14 13 9 12 8 11 18 12 12 6 5 13 5 19 23 24 19 21 23 16 18 17 5 17 17 19 9 13 8 6 9 11 11 15 13 8 7 6 5
6 7 8 3 10 13 13 12 16 14 14 8 13 18 4 5 4 7 19 20 17 12 13 16 21 20 26 25 16 15 21 18 15 10 10 17 19 18 16 14 10 5 4 4
4 6 11 14 7 29 17 9 26 23 20 11 23 2 8 13 12 17 12 9 9 11 15 20 26 29 26 18 18 21 20 16 14 14 8 7 10 9 6 5 4 2 1 3
6 9 12 11 25 27 9 15 36 34 25 26 11 14 5 11 17 15 19 16 11 27 24 25 26 21 19 17 21 15 14 17 18 14 11 9 8 7 8 8 8 11 14 13
1 2 12 19 24 15 15 21 35 26 19 31 19 17 15 14 17 20 22 19 24 32 20 25 26 24 18 15 8 12 18 15 14 11 10 8 9 12 14 16 18 21 23 24
14 12 11 26 28 35 31 31 33 29 19 20 24 27 22 20 21 19 25 30 19 22 22 24 23 22 17 9 17 22 20 17 15 14 12 13 15 16 16 18 22 26 27 30
4 9 14 19 20 23 30 36 26 32 25 23 26 26 28 24 22 23 24 27 29 29 27 23 24 25 23 18 17 19 20 19 16 19 19 20 20 21 23 25 26 30 30 31
10 11 25 34 39 38 46 40 38 33 32 33 30 28 32 29 25 28 26 28 30 28 26 25 25 29 30 29 23 25 25 27 28 23 27 23 22 21 22 27 30 32 31 28
13 26 28 46 53 35 50 48 49 48 42 33 35 27 36 34 27 27 31 30 35 34 32 25 22 16 15 20 28 23 21 24 24 24 23 25 26 27 27 21 21 23 21 23
32 51 49 43 35 41 42 48 47 57 45 47 43 34 35 40 35 32 32 36 37 38 38 31 32 24 21 17 15 20 23 25 25 30 31 28 28 25 23 20 19 18 24 23
67 56 28 34 43 50 39 39 45 48 53 46 43 43 35 45 37 41 41 44 39 41 41 40 40 37 27 31 31 30 29 25 25 23 22 21 23 23 29 29 30 34 29 24
68 36 39 34 38 33 34 31 51 59 53 41 41 41 40 46 49 33 30 48 46 44 56 47 42 40 37 33 41 39 38 32 34 30 30 26 29 30 37 34 36 35 35 33
62 40 21 20 29 40 45 39 48 51 57 47 46 47 44 48 46 33 29 51 46 57 55 56 57 42 42 37 39 36 40 37 37 35 32 31 32 37 45 45 46 50 44 42
61 66 62 56 33 23 46 42 41 40 54 53 50 43 41 43 40 39 31 37 40 52 42 53 47 41 42 47 41 39 36 41 39 39 36 34 37 37 31 43 42 39 45 44
50 42 41 36 37 28 16 47 38 39 44 54 44 40 54 50 46 47 40 44 50 45 47 48 42 39 38 46 50 41 42 44 43 40 41 38 39 38 36 35 43 49 54 56
54 58 53 55 38 31 31 16 38 34 31 31 41 42 46 57 59 51 50 48 57 55 50 49 50 47 46 44 45 46 45 43 43 38 43 44 41 40 42 49 55 56 58 62
63 62 60 56 43 29 26 27 9 36 38 38 39 40 43 40 44 45 37 54 64 66 44 48 48 52 53 48 50 48 43 41 42 43 42 48 52 53 50 50 48 46 48 50
63 66 51 45 42 31 27 17 21 16 18 32 37 40 38 43 39 41 40 44 62 56 43 42 44 48 50 50 55 57 54 52 49 47 38 31 34 43 47 46 44 43 41 45
52 57 54 49 42 36 24 48 38 27 23 15 33 45 40 42 32 32 40 48 58 62 54 55 44 50 51 54 49 57 64 57 49 43 46 48 50 52 54 56 51 44 45 50
57 49 54 36 32 28 28 25 33 16 18 19 21 32 42 37 33 41 48 47 47 53 58 50 45 46 53 56 53 53 63 57 53 53 57 60 59 54 50 40 30 27 27 29
62 41 40 37 26 12 9 4 16 19 24 19 24 29 36 39 41 46 43 34 26 33 44 44 42 38 44 44 56 58 61 56 54 51 41 30 15 7 6 8 8 17 13 7
51 26 36 41 40 33 30 12 13 10 13 5 13 10 17 22 21 26 28 31 28 18 34 47 50 43 35 40 46 45 50 43 30 29 21 6 1 5 6 12 14 11 2 5
68 37 27 39 38 36 40 18 14 18 14 11 9 7 8 11 15 10 14 21 33 39 43 41 38 41 42 38 36 35 32 31 20 15 22 20 15 14 10 5 1 5 10 14
66 55 34 40 41 36 43 42 37 35 27 21 14 8 5 11 2 9 9 7 16 16 17 18 30 43 49 49 42 41 34 35 32 30 25 18 10 3 5 11 15 19 22 29
Wind_Direction_500mb
248 268 221 120 74 50 72 210 211 315 223 296 86 31 16 13 148 130 133 136 126 126 131 137 157 161 158 157 164 169 172 175 202 202 191 197 191 184 186 191 188 186 181 180
286 286 185 148 179 119 126 174 248 315 246 224 137 22 14 18 97 135 153 159 145 136 152 165 157 151 151 153 156 172 227 228 212 168 172 173 185 178 182 199 201 204 196 192
254 272 305 340 210 186 208 230 181 233 244 252 187 162 261 331 333 238 191 169 167 162 179 173 156 152 168 169 204 166 139 123 163 159 136 144 152 167 152 163 196 204 214 202
244 55 173 239 196 178 185 209 203 207 250 268 216 221 210 300 327 234 183 186 187 181 171 168 176 221 199 207 145 126 130 174 197 195 185 182 157 129 113 128 144 176 203 217
160 206 274 244 207 186 176 254 194 200 246 234 166 157 228 285 310 206 189 165 143 177 247 219 197 170 137 144 171 182 184 166 161 152 115 103 123 125 116 108 97 97 131 185
144 201 229 235 190 144 101 294 201 198 224 228 153 306 251 207 186 193 190 254 209 206 210 186 157 159 162 177 178 185 199 197 177 190 142 130 113 75 82 81 64 34 167 268
222 239 286 230 156 136 103 239 185 200 221 183 194 217 218 184 191 203 212 200 210 176 167 180 180 204 209 206 226 227 227 230 222 219 196 191 177 224 269 296 300 293 290 293
154 236 290 163 141 176 208 169 185 205 224 200 212 187 181 181 181 183 184 200 187 201 190 187 192 202 215 215 215 224 211 199 200 205 208 202 244 263 274 277 284 285 290 292
170 215 229 191 214 223 205 190 203 208 219 222 213 199 203 200 193 190 196 199 203 192 186 190 194 212 221 221 200 193 203 188 182 184 218 233 239 252 273 284 281 284 284 283
92 259 222 202 201 214 226 246 211 215 215 231 214 223 217 205 199 193 188 191 195 199 206 205 202 200 218 221 228 202 209 224 230 208 227 254 262 274 282 289 288 287 286 282
245 265 287 262 242 242 228 224 223 213 221 217 212 213 224 208 205 204 208 213 203 210 217 222 220 229 233 230 235 221 228 224 235 233 246 250 262 283 287 287 283 278 275 276
241 259 223 259 271 253 227 228 231 217 218 224 213 219 226 214 205 206 210 217 226 228 230 227 225 227 228 219 223 231 234 235 236 240 249 263 271 274 270 277 286 277 274 272
251 271 252 256 257 214 221 225 227 214 224 221 215 218 229 216 209 213 221 224 221 225 227 224 224 232 225 223 217 224 229 238 249 256 257 265 266 267 264 276 288 287 302 267
285 265 243 220 221 222 225 219 223 224 224 221 219 218 222 219 213 219 231 230 232 231 229 226 226 228 228 233 230 243 247 245 248 255 245 247 252 264 274 268 281 285 285 266
349 283 249 248 230 215 204 218 226 228 219 224 213 229 235 212 216 231 252 225 229 233 233 227 228 236 238 239 245 246 242 246 247 245 243 250 255 266 272 264 274 285 276 267
1 2 336 287 230 211 203 211 215 213 215 218 213 219 233 238 234 252 247 220 239 234 226 232 237 233 232 236 235 238 236 248 246 246 253 261 262 265 280 266 261 266 269 268
6 354 356 355 325 287 247 222 214 221 223 223 227 230 215 226 236 243 242 233 234 230 243 227 245 228 236 236 237 238 229 243 248 248 254 263 264 267 288 256 262 269 264 271
356 340 347 324 345 29 319 225 221 224 231 235 226 247 248 242 244 249 241 238 231 232 240 237 229 234 236 243 235 232 245 249 253 265 249 251 258 263 274 276 271 276 278 281
346 341 337 338 340 360 29 349 246 237 224 235 252 240 257 264 254 254 251 247 234 233 233 230 231 231 232 242 234 233 246 259 268 267 248 244 252 260 268 276 277 282 283 281
334 335 336 330 330 309 327 5 311 246 249 245 244 258 266 259 270 246 248 236 234 230 232 236 234 239 233 239 238 242 253 258 263 269 261 254 257 263 269 272 276 280 281 281
325 333 331 322 312 324 278 293 321 7 301 243 250 260 277 271 276 244 242 244 232 231 235 229 242 236 235 238 238 245 250 254 257 263 253 258 259 260 264 269 273 276 276 279
329 326 323 316 302 291 290 252 267 297 314 283 258 256 254 265 251 249 255 261 247 243 234 238 241 231 231 236 243 246 249 249 257 246 244 251 257 263 266 270 268 274 286 300
339 332 339 316 290 284 274 284 232 258 268 264 271 255 259 251 255 263 271 279 249 244 244 242 236 250 239 239 244 247 240 242 242 244 252 256 257 255 254 257 272 297 317 328
342 347 4 32 36 32 5 52 199 264 287 291 292 286 264 250 267 264 272 257 247 220 245 249 255 251 240 242 239 236 243 246 245 239 231 235 229 263 264 236 309 345 356 28
18 32 26 31 32 28 30 22 353 341 300 335 4 325 284 262 293 289 253 263 234 232 263 254 265 260 254 260 239 230 227 220 213 212 206 187 328 333 17 54 59 88 80 347
15 29 43 46 39 41 45 27 45 42 57 39 59 15 326 294 280 276 257 251 249 237 259 253 251 249 241 206 190 173 159 151 138 110 103 102 92 81 82 85 32 325 316 309
41 57 61 61 60 55 59 53 57 62 68 59 63 57 71 56 3 297 301 192 177 184 197 196 163 144 135 140 130 119 110 94 101 107 91 89 106 153 291 311 304 296 291 288
Wind_Speed_850mb
10 12 3 5 5 8 6 3 5 6 6 6 5 5 16 18 14 14 17 23 30 36 39 37 40 45 50 51 50 42 30 15 10 15 22 23 24 26 27 26 24 22 20 16
8 9 10 7 5 5 1 4 5 11 9 10 9 8 24 22 4 8 17 19 29 26 24 29 40 42 39 32 20 7 5 10 7 11 16 16 15 21 21 20 20 21 20 20
9 7 1 4 11 10 8 8 8 7 11 8 3 6 2 12 11 12 16 25 26 22 22 29 30 23 21 16 10 14 13 10 11 13 13 14 11 7 9 7 11 15 17 18
8 4 2 14 13 14 13 9 12 8 11 18 12 12 6 5 13 5 19 23 24 19 21 23 16 18 17 5 17 17 19 9 13 8 6 9 11 11 15 13 8 7 6 5
6 7 8 3 10 13 13 12 16 14 14 8 13 18 4 5 4 7 19 20 17 12 13 16 21 20 26 25 16 15 21 18 15 10 10 17 19 18 16 14 10 5 4 4
4 6 11 14 7 29 17 9 26 23 20 11 23 2 8 13 12 17 12 9 9 11 15 20 26 29 26 18 18 21 20 16 14 14 8 7 10 9 6 5 4 2 1 3
6 9 12 11 25 27 9 15 36 34 25 26 11 14 5 11 17 15 19 16 11 27 24 25 26 21 19 17 21 15 14 17 18 14 11 9 8 7 8 8 8 11 14 13
1 2 12 19 24 15 15 21 35 26 19 31 19 17 15 14 17 20 22 19 24 32 20 25 26 24 18 15 8 12 18 15 14 11 10 8 9 12 14 16 18 21 23 24
14 12 11 26 28 35 31 31 33 29 19 20 24 27 22 20 21 19 25 30 19 22 22 24 23 22 17 9 17 22 20 17 15 14 12 13 15 16 16 18 22 26 27 30
4 9 14 19 20 23 30 36 26 32 25 23 26 26 28 24 22 23 24 27 29 29 27 23 24 25 23 18 17 19 20 19 16 19 19 20 20 21 23 25 26 30 30 31
10 11 25 34 39 38 46 40 38 33 32 33 30 28 32 29 25 28 26 28 30 28 26 25 25 29 30 29 23 25 25 27 28 23 27 23 22 21 22 27 30 32 31 28
13 26 28 46 53 35 50 48 49 48 42 33 35 27 36 34 27 27 31 30 35 34 32 25 22 16 15 20 28 23 21 24 24 24 23 25 26 27 27 21 21 23 21 23
32 51 49 43 35 41 42 48 47 57 45 47 43 34 35 40 35 32 32 36 37 38 38 31 32 24 21 17 15 20 23 25 25 30 31 28 28 25 23 20 19 18 24 23
67 56 28 34 43 50 39 39 45 48 53 46 43 43 35 45 37 41 41 44 39 41 41 40 40 37 27 31 31 30 29 25 25 23 22 21 23 23 29 29 30 34 29 24
68 36 39 34 38 33 34 31 51 59 53 41 41 41 40 46 49 33 30 48 46 44 56 47 42 40 37 33 41 39 38 32 34 30 30 26 29 30 37 34 36 35 35 33
62 40 21 20 29 40 45 39 48 51 57 47 46 47 44 48 46 33 29 51 46 57 55 56 57 42 42 37 39 36 40 37 37 35 32 31 32 37 45 45 46 50 44 42
61 66 62 56 33 23 46 42 41 40 54 53 50 43 41 43 40 39 31 37 40 52 42 53 47 41 42 47 41 39 36 41 39 39 36 34 37 37 31 43 42 39 45 44
50 42 41 36 37 28 16 47 38 39 44 54 44 40 54 50 46 47 40 44 50 45 47 48 42 39 38 46 50 41 42 44 43 40 41 38 39 38 36 35 43 49 54 56
54 58 53 55 38 31 31 16 38 34 31 31 41 42 46 57 59 51 50 48 57 55 50 49 50 47 46 44 45 46 45 43 43 38 43 44 41 40 42 49 55 56 58 62
63 62 60 56 43 29 26 27 9 36 38 38 39 40 43 40 44 45 37 54 64 66 44 48 48 52 53 48 50 48 43 41 42 43 42 48 52 53 50 50 48 46 48 50
63 66 51 45 42 31 27 17 21 16 18 32 37 40 38 43 39 41 40 44 62 56 43 42 44 48 50 50 55 57 54 52 49 47 38 31 34 43 47 46 44 43 41 45
52 57 54 49 42 36 24 48 38 27 23 15 33 45 40 42 32 32 40 48 58 62 54 55 44 50 51 54 49 57 64 57 49 43 46 48 50 52 54 56 51 44 45 50
57 49 54 36 32 28 28 25 33 16 18 19 21 32 42 37 33 41 48 47 47 53 58 50 45 46 53 56 53 53 63 57 53 53 57 60 59 54 50 40 30 27 27 29
62 41 40 37 26 12 9 4 16 19 24 19 24 29 36 39 41 46 43 34 26 33 44 44 42 38 44 44 56 58 61 56 54 51 41 30 15 7 6 8 8 17 13 7
51 26 36 41 40 33 30 12 13 10 13 5 13 10 17 22 21 26 28 31 28 18 34 47 50 43 35 40 46 45 50 43 30 29 21 6 1 5 6 12 14 11 2 5
68 37 27 39 38 36 40 18 14 18 14 11 9 7 8 11 15 10 14 21 33 39 43 41 38 41 42 38 36 35 32 31 20 15 22 20 15 14 10 5 1 5 10 14
66 55 34 40 41 36 43 42 37 35 27 21 14 8 5 11 2 9 9 7 16 16 17 18 30 43 49 49 42 41 34 35 32 30 25 18 10 3 5 11 15 19 22 29
Wind_Direction_850mb
248 268 221 120 74 50 72 210 211 315 223 296 86 31 16 13 148 130 133 136 126 126 131 137 157 161 158 157 164 169 172 175 202 202 191 197 191 184 186 191 188 186 181 180
286 286 185 148 179 119 126 174 248 315 246 224 137 22 14 18 97 135 153 159 145 136 152 165 157 151 151 153 156 172 227 228 212 168 172 173 185 178 182 199 201 204 196 192
254 272 305 340 210 186 208 230 181 233 244 252 187 162 261 331 333 238 191 169 167 162 179 173 156 152 168 169 204 166 139 123 163 159 136 144 152 167 152 163 196 204 214 202
244 55 173 239 196 178 185 209 203 207 250 268 216 221 210 300 327 234 183 186 187 181 171 168 176 221 199 207 145 126 130 174 197 195 185 182 157 129 113 128 144 176 203 217
160 206 274 244 207 186 176 254 194 200 246 234 166 157 228 285 310 206 189 165 143 177 247 219 197 170 137 144 171 182 184 166 161 152 115 103 123 125 116 108 97 97 131 185
144 201 229 235 190 144 101 294 201 198 224 228 153 306 251 207 186 193 190 254 209 206 210 186 157 159 162 177 178 185 199 197 177 190 142 130 113 75 82 81 64 34 167 268
222 239 286 230 156 136 103 239 185 200 221 183 194 217 218 184 191 203 212 200 210 176 167 180 180 204 209 206 226 227 227 230 222 219 196 191 177 224 269 296 300 293 290 293
154 236 290 163 141 176 208 169 185 205 224 200 212 187 181 181 181 183 184 200 187 201 190 187 192 202 215 215 215 224 211 199 200 205 208 202 244 263 274 277 284 285 290 292
170 215 229 191 214 223 205 190 203 208 219 222 213 199 203 200 193 190 196 199 203 192 186 190 194 212 221 221 200 193 203 188 182 184 218 233 239 252 273 284 281 284 284 283
92 259 222 202 201 214 226 246 211 215 215 231 214 223 217 205 199 193 188 191 195 199 206 205 202 200 218 221 228 202 209 224 230 208 227 254 262 274 282 289 288 287 286 282
245 265 287 262 242 242 228 224 223 213 221 217 212 213 224 208 205 204 208 213 203 210 217 222 220 229 233 230 235 221 228 224 235 233 246 250 262 283 287 287 283 278 275 276
241 259 223 259 271 253 227 228 231 217 218 224 213 219 226 214 205 206 210 217 226 228 230 227 225 227 228 219 223 231 234 235 236 240 249 263 271 274 270 277 286 277 274 272
251 271 252 256 257 214 221 225 227 214 224 221 215 218 229 216 209 213 221 224 221 225 227 224 224 232 225 223 217 224 229 238 249 256 257 265 266 267 264 276 288 287 302 267
285 265 243 220 221 222 225 219 223 224 224 221 219 218 222 219 213 219 231 230 232 231 229 226 226 228 228 233 230 243 247 245 248 255 245 247 252 264 274 268 281 285 285 266
349 283 249 248 230 215 204 218 226 228 219 224 213 229 235 212 216 231 252 225 229 233 233 227 228 236 238 239 245 246 242 246 247 245 243 250 255 266 272 264 274 285 276 267
1 2 336 287 230 211 203 211 215 213 215 218 213 219 233 238 234 252 247 220 239 234 226 232 237 233 232 236 235 238 236 248 246 246 253 261 262 265 280 266 261 266 269 268
6 354 356 355 325 287 247 222 214 221 223 223 227 230 215 226 236 243 242 233 234 230 243 227 245 228 236 236 237 238 229 243 248 248 254 263 264 267 288 256 262 269 264 271
356 340 347 324 345 29 319 225 221 224 231 235 226 247 248 242 244 249 241 238 231 232 240 237 229 234 236 243 235 232 245 249 253 265 249 251 258 263 274 276 271 276 278 281
346 341 337 338 340 360 29 349 246 237 224 235 252 240 257 264 254 254 251 247 234 233 233 230 231 231 232 242 234 233 246 259 268 267 248 244 252 260 268 276 277 282 283 281
334 335 336 330 330 309 327 5 311 246 249 245 244 258 266 259 270 246 248 236 234 230 232 236 234 239 233 239 238 242 253 258 263 269 261 254 257 263 269 272 276 280 281 281
325 333 331 322 312 324 278 293 321 7 301 243 250 260 277 271 276 244 242 244 232 231 235 229 242 236 235 238 238 245 250 254 257 263 253 258 259 260 264 269 273 276 276 279
329 326 323 316 302 291 290 252 267 297 314 283 258 256 254 265 251 249 255 261 247 243 234 238 241 231 231 236 243 246 249 249 257 246 244 251 257 263 266 270 268 274 286 300
339 332 339 316 290 284 274 284 232 258 268 264 271 255 259 251 255 263 271 279 249 244 244 242 236 250 239 239 244 247 240 242 242 244 252 256 257 255 254 257 272 297 317 328
342 347 4 32 36 32 5 52 199 264 287 291 292 286 264 250 267 264 272 257 247 220 245 249 255 251 240 242 239 236 243 246 245 239 231 235 229 263 264 236 309 345 356 28
18 32 26 31 32 28 30 22 353 341 300 335 4 325 284 262 293 289 253 263 234 232 263 254 265 260 254 260 239 230 227 220 213 212 206 187 328 333 17 54 59 88 80 347
15 29 43 46 39 41 45 27 45 42 57 39 59 15 326 294 280 276 257 251 249 237 259 253 251 249 241 206 190 173 159 151 138 110 103 102 92 81 82 85 32 325 316 309
41 57 61 61 60 55 59 53 57 62 68 59 63 57 71 56 3 297 301 192 177 184 197 196 163 144 135 140 130 119 110 94 101 107 91 89 106 153 291 311 304 296 291 288